Weather History for Mandan, ND

Change the Weather History Date:

Wednesday, February 27, 2013

  Actual Average (KBIS) Record (KBIS)
Temperature  
Mean Temperature 26 °F 22 °F  
Max Temperature 30 °F 32 °F 65 °F (1932)
Min Temperature 23 °F 13 °F -27 °F (1962)
Degree Days  
Heating Degree Days 38 43  
Month to date heating degree days 1272  
Since 1 July heating degree days 6390  
Cooling Degree Days 0 0  
Month to date cooling degree days 0  
Year to date cooling degree days 0  
Moisture  
Dew Point 27 °F    
Average Humidity 97    
Maximum Humidity 100    
Minimum Humidity 86    
Precipitation  
Precipitation 0.00 in 0.02 in 0.58 in (1958)
Month to date precipitation 0.48  
Year to date precipitation 0.91  
Snow  
Snow 0.00 in 0.40 in 5.60 in (1958)
Month to date snowfall 7.8  
Since 1 July snowfall 37.2  
Snow Depth -    
Sea Level Pressure  
Sea Level Pressure 30.19 in    
Wind  
Wind Speed 12 mph (NNW)    
Max Wind Speed 17 mph    
Max Gust Speed 24 mph    
Visibility 9 miles    
Events      
T = Trace of Precipitation, MM = Missing Value Source: NWS Daily Summary

Daily Weather History Graph

Daily Weather History Graph

Search for Another Location

Airport:

Trip Planner

Search our weather history database for the weather conditions in past years. The results will help you decide how hot, cold, wet, or windy it might be!

Date:

Astronomy

Feb. 27, 2013 Rise Set
Actual Time 7:26 AM CST 6:26 PM CST
Civil Twilight 6:55 AM CST 6:57 PM CST
Nautical Twilight 6:20 AM CST 7:32 PM CST
Astronomical Twilight 5:45 AM CST 8:07 PM CST
Moon 9:02 PM CST (2/27) 7:52 AM CST (2/27)
Length of Visible Light 12h 01m
Length of Day
11h 00m
Waning Gibbous, 96% of the Moon is Illuminated
Feb 27
Waning Gibbous
Mar 4
Last Quarter
Mar 11
New
Mar 19
First Quarter
Mar 27
Full

Hourly Weather History & Observations

Time (CST) Temp. Windchill Dew Point Humidity Pressure Visibility Wind Dir Wind Speed Gust Speed Precip Events Conditions
12:15 AM 30.2 °F 20.2 °F 30.2 °F 100% 30.09 in 10.0 mi NNW 12.7 mph - N/A   Overcast
12:35 AM 30.2 °F 20.2 °F 30.2 °F 100% 30.09 in 10.0 mi North 12.7 mph - N/A   Overcast
12:55 AM 30.2 °F 20.2 °F 30.2 °F 100% 30.09 in 9.0 mi North 12.7 mph 17.3 mph N/A   Overcast
1:15 AM 30.2 °F 20.8 °F 30.2 °F 100% 30.10 in 8.0 mi North 11.5 mph - N/A   Overcast
1:35 AM 30.2 °F 21.3 °F 30.2 °F 100% 30.10 in 7.0 mi NNW 10.4 mph - N/A   Overcast
1:55 AM 30.2 °F 20.8 °F 30.2 °F 100% 30.10 in 7.0 mi NNW 11.5 mph 19.6 mph N/A   Overcast
2:15 AM 30.2 °F 21.3 °F 30.2 °F 100% 30.11 in 6.0 mi NNW 10.4 mph - N/A   Overcast
2:35 AM 30.2 °F 20.2 °F 30.2 °F 100% 30.11 in 8.0 mi NNW 12.7 mph - N/A   Overcast
2:55 AM 28.4 °F 18.0 °F 28.4 °F 100% 30.11 in 7.0 mi NNW 12.7 mph - N/A   Overcast
3:35 AM 28.4 °F 19.1 °F 28.4 °F 100% 30.11 in 5.0 mi NNW 10.4 mph - N/A   Overcast
3:55 AM 28.4 °F 19.1 °F 28.4 °F 100% 30.11 in 5.0 mi NNW 10.4 mph - N/A   Overcast
4:15 AM 28.4 °F 18.5 °F 28.4 °F 100% 30.11 in 5.0 mi NNW 11.5 mph - N/A   Overcast
4:35 AM 28.4 °F 19.1 °F 28.4 °F 100% 30.12 in 5.0 mi NNW 10.4 mph - N/A   Overcast
4:55 AM 28.4 °F 18.5 °F 28.4 °F 100% 30.12 in 4.0 mi North 11.5 mph - N/A   Overcast
5:15 AM 28.4 °F 18.5 °F 28.4 °F 100% 30.12 in 4.0 mi NNW 11.5 mph - N/A   Overcast
5:35 AM 28.4 °F 16.6 °F 28.4 °F 100% 30.13 in 5.0 mi NNW 16.1 mph - N/A   Overcast
5:55 AM 28.4 °F 17.5 °F 28.4 °F 100% 30.14 in 7.0 mi NNW 13.8 mph 21.9 mph N/A   Overcast
6:15 AM 26.6 °F 15.2 °F 26.6 °F 100% 30.15 in 7.0 mi NW 13.8 mph 20.7 mph N/A   Overcast
6:35 AM 26.6 °F 14.3 °F 26.6 °F 100% 30.15 in 6.0 mi NW 16.1 mph - N/A   Overcast
6:55 AM 26.6 °F 13.8 °F 26.6 °F 100% 30.16 in 5.0 mi NW 17.3 mph 24.2 mph N/A   Overcast
7:15 AM 26.6 °F 15.2 °F 26.6 °F 100% 30.16 in 10.0 mi NW 13.8 mph 21.9 mph N/A   Overcast
7:35 AM 26.6 °F 14.7 °F 26.6 °F 100% 30.17 in 10.0 mi NNW 15.0 mph - N/A   Overcast
7:55 AM 26.6 °F 15.2 °F 26.6 °F 100% 30.16 in 9.0 mi NNW 13.8 mph - N/A   Overcast
8:15 AM 26.6 °F 15.7 °F 26.6 °F 100% 30.17 in 8.0 mi NNW 12.7 mph - N/A   Overcast
8:35 AM 26.6 °F 14.7 °F 26.6 °F 100% 30.17 in 8.0 mi NNW 15.0 mph 19.6 mph N/A   Overcast
8:55 AM 26.6 °F 14.3 °F 26.6 °F 100% 30.18 in 5.0 mi NNW 16.1 mph - N/A   Overcast
9:15 AM 26.6 °F 15.7 °F 26.6 °F 100% 30.18 in 6.0 mi NNW 12.7 mph - N/A   Overcast
9:35 AM 26.6 °F 15.2 °F 26.6 °F 100% 30.19 in 9.0 mi NNW 13.8 mph - N/A   Overcast
9:55 AM 26.6 °F 16.2 °F 24.8 °F 93% 30.20 in 9.0 mi North 11.5 mph - N/A   Overcast
10:15 AM 26.6 °F 14.7 °F 24.8 °F 93% 30.20 in 10.0 mi North 15.0 mph - N/A   Overcast
10:55 AM 26.6 °F 15.7 °F 24.8 °F 93% 30.21 in 10.0 mi North 12.7 mph - N/A   Overcast
11:15 AM 26.6 °F 15.7 °F 24.8 °F 93% 30.21 in 10.0 mi North 12.7 mph - N/A   Overcast
11:35 AM 26.6 °F 16.2 °F 24.8 °F 93% 30.21 in 10.0 mi North 11.5 mph - N/A   Overcast
11:55 AM 28.4 °F 18.5 °F 24.8 °F 86% 30.21 in 10.0 mi North 11.5 mph - N/A   Overcast
12:15 PM 28.4 °F 18.0 °F 24.8 °F 86% 30.22 in 10.0 mi NNW 12.7 mph - N/A   Overcast
12:35 PM 30.2 °F 19.3 °F 26.6 °F 86% 30.22 in 10.0 mi North 15.0 mph - N/A   Overcast
12:55 PM 28.4 °F 18.0 °F 26.6 °F 93% 30.22 in 10.0 mi North 12.7 mph - N/A   Overcast
1:15 PM 28.4 °F 17.5 °F 26.6 °F 93% 30.22 in 10.0 mi NNW 13.8 mph - N/A   Overcast
1:35 PM 28.4 °F 17.5 °F 26.6 °F 93% 30.22 in 10.0 mi North 13.8 mph - N/A   Overcast
2:15 PM 28.4 °F 19.1 °F 26.6 °F 93% 30.22 in 10.0 mi North 10.4 mph - N/A   Overcast
2:35 PM 28.4 °F 18.0 °F 26.6 °F 93% 30.22 in 10.0 mi North 12.7 mph - N/A   Overcast
2:55 PM 28.4 °F 18.5 °F 26.6 °F 93% 30.22 in 10.0 mi North 11.5 mph - N/A   Overcast
3:15 PM 28.4 °F 18.0 °F 26.6 °F 93% 30.22 in 10.0 mi North 12.7 mph - N/A   Overcast
3:35 PM 28.4 °F 18.0 °F 26.6 °F 93% 30.22 in 10.0 mi North 12.7 mph - N/A   Overcast
3:55 PM 28.4 °F 18.0 °F 26.6 °F 93% 30.23 in 10.0 mi North 12.7 mph 16.1 mph N/A   Overcast
4:15 PM 28.4 °F 18.0 °F 26.6 °F 93% 30.23 in 10.0 mi North 12.7 mph - N/A   Overcast
4:35 PM 28.4 °F 18.0 °F 26.6 °F 93% 30.23 in 10.0 mi North 12.7 mph - N/A   Overcast
4:55 PM 28.4 °F 19.1 °F 26.6 °F 93% 30.23 in 10.0 mi North 10.4 mph - N/A   Overcast
5:15 PM 28.4 °F 18.0 °F 26.6 °F 93% 30.24 in 10.0 mi North 12.7 mph - N/A   Overcast
5:35 PM 28.4 °F 17.5 °F 26.6 °F 93% 30.24 in 10.0 mi North 13.8 mph - N/A   Overcast
5:55 PM 28.4 °F 17.5 °F 26.6 °F 93% 30.25 in 10.0 mi North 13.8 mph - N/A   Overcast
6:15 PM 26.6 °F 16.2 °F 26.6 °F 100% 30.25 in 10.0 mi North 11.5 mph - N/A   Overcast
6:35 PM 26.6 °F 16.8 °F 26.6 °F 100% 30.25 in 10.0 mi North 10.4 mph - N/A   Overcast
6:55 PM 26.6 °F 15.7 °F 26.6 °F 100% 30.25 in 10.0 mi North 12.7 mph - N/A   Overcast
7:35 PM 26.6 °F 15.7 °F 26.6 °F 100% 30.26 in 10.0 mi North 12.7 mph - N/A   Overcast
8:15 PM 26.6 °F 16.8 °F 24.8 °F 93% 30.26 in 10.0 mi North 10.4 mph - N/A   Overcast
8:35 PM 24.8 °F 14.6 °F 24.8 °F 100% 30.26 in 10.0 mi North 10.4 mph - N/A   Overcast
8:55 PM 24.8 °F 15.3 °F 24.8 °F 100% 30.26 in 10.0 mi North 9.2 mph - N/A   Overcast
9:15 PM 24.8 °F 14.6 °F 24.8 °F 100% 30.27 in 10.0 mi North 10.4 mph - N/A   Overcast
9:35 PM 23.0 °F 11.7 °F 23.0 °F 100% 30.27 in 10.0 mi North 11.5 mph - N/A   Overcast
9:55 PM 23.0 °F 13.1 °F 23.0 °F 100% 30.27 in 10.0 mi NNE 9.2 mph - N/A   Overcast
10:15 PM 23.0 °F 11.7 °F 23.0 °F 100% 30.27 in 10.0 mi North 11.5 mph - N/A   Overcast
10:35 PM 23.0 °F 13.1 °F 23.0 °F 100% 30.26 in 10.0 mi NNE 9.2 mph - N/A   Overcast
10:55 PM 23.0 °F 15.8 °F 23.0 °F 100% 30.26 in 7.0 mi North 5.8 mph - N/A   Overcast
11:15 PM 23.0 °F 13.9 °F 23.0 °F 100% 30.27 in 10.0 mi North 8.1 mph - N/A   Overcast
11:55 PM 23.0 °F 13.9 °F 21.2 °F 93% 30.27 in 10.0 mi North 8.1 mph - N/A   Overcast